Location: Chanteloup
(48.8560°N, 2.7390°E)
Time: 05:49:29
(UTC+00:00)

Cosmos 1758 Rocket - Pass Details

Date: 06 June 2022
Orbit: 602 x 635 km, 82.5° (Epoch: 01 July)

Event Time Altitude Azimuth Distance (km) Brightness Sun altitude
Exits shadow 02:32:10 - 172° (S) 2,524 6.3 -9.6°
Reaches altitude 10° 02:33:36 10° 169° (S) 1,954 5.7 -9.5°
Maximum altitude 02:37:46 50° 94° (E) 777 4.3 -9.1°
Drops below altitude 10° 02:41:57 10° 20° (NNE) 1,959 7.4 -8.6°
Sets 02:44:13 0° 15° (NNE) 2,866 8.3 -8.4°
